Chillicothe, MO

11:07 AM CST on November 12, 2019 (GMT -0600)
Chillicothe

Weather History for KCDJ - September, 2019

Change the Weather History Date:

Sunday, September 8, 2019

  Actual Average (KIRK) Record (KIRK)
Temperature  
Mean Temperature 72 °F -  
Max Temperature 80 °F 81 °F 103 °F (1947)
Min Temperature 64 °F 58 °F 36 °F (1956)
Cooling Degree Days 6    
Growing Degree Days 22 (Base 50)    
Moisture  
Dew Point 68 °F    
Average Humidity 90    
Maximum Humidity 100    
Minimum Humidity 78    
Precipitation  
Precipitation 1.38 in - - ()
Sea Level Pressure  
Sea Level Pressure 29.96 in    
Wind  
Wind Speed 5 mph (ESE)    
Max Wind Speed 10 mph    
Max Gust Speed 20 mph    
Averages and records for this station are not official NWS values.
T = Trace of Precipitation, MM = Missing Value Source: NWS Daily Summary

Daily Weather History Graph

Daily Weather History Graph

Search for Another Location

Airport or City:

Astronomy

Sep. 08, 2019 Rise Set
Actual Time 6:48 AM CDT 7:34 PM CDT
Civil Twilight 6:21 AM CDT 8:02 PM CDT
Nautical Twilight 5:48 AM CDT 8:34 PM CDT
Astronomical Twilight 5:15 AM CDT 9:07 PM CDT
Moon 4:43 PM CDT (9/8) 1:29 AM CDT (9/8)
Length of Visible Light 13h 40m
Length of Day
12h 46m
Waxing Gibbous, 75% of the Moon is Illuminated
Sep 8
Waxing Gibbous
Sep 13
Full
Sep 21
Last Quarter
Sep 28
New
Oct 5
First Quarter

Hourly Weather History & Observations

Time (CDT) Temp. Dew Point Humidity Pressure Visibility Wind Dir Wind Speed Gust Speed Precip Events Conditions
12:52 AM 70.0 °F 63.0 °F 78% 29.91 in - SE 9.2 mph - 0.01 in   Unknown
1:52 AM 64.0 °F 64.0 °F 100% 30.00 in - Calm Calm - 0.97 in   Unknown
2:52 AM 64.9 °F 64.0 °F 97% 29.96 in - East 4.6 mph - 0.07 in   Unknown
3:52 AM 64.9 °F 64.0 °F 97% 29.92 in - ESE 10.4 mph 19.6 mph 0.02 in   Unknown
4:52 AM 64.9 °F 64.0 °F 97% 29.95 in - SSE 8.1 mph - 0.31 in   Unknown
6:52 AM 64.9 °F 64.0 °F 97% 29.93 in - ESE 5.8 mph - N/A   Unknown
7:52 AM 66.0 °F 64.9 °F 96% 29.97 in - Calm Calm - N/A   Unknown
8:52 AM 66.9 °F 66.0 °F 97% 29.98 in - Calm Calm - N/A   Unknown
9:52 AM 69.1 °F 66.9 °F 93% 29.97 in - Variable 3.5 mph - N/A   Unknown
10:52 AM 71.1 °F 68.0 °F 90% 29.98 in - ESE 3.5 mph - N/A   Unknown
11:52 AM 72.0 °F 68.0 °F 87% 29.97 in - East 3.5 mph - N/A   Unknown
12:52 PM 73.9 °F 69.1 °F 85% 29.97 in - SE 6.9 mph - N/A   Unknown
1:52 PM 75.0 °F 69.1 °F 82% 29.95 in - Variable 4.6 mph - N/A   Unknown
2:52 PM 77.0 °F 70.0 °F 79% 29.94 in - Variable 4.6 mph - N/A   Unknown
4:52 PM 79.0 °F 72.0 °F 79% 29.94 in - Calm Calm - N/A   Unknown
5:52 PM 78.1 °F 71.1 °F 79% 29.93 in - Variable 4.6 mph - N/A   Unknown
6:52 PM 77.0 °F 72.0 °F 84% 29.94 in - Calm Calm - N/A   Unknown
7:52 PM 75.0 °F 72.0 °F 90% 29.95 in - NE 5.8 mph - N/A   Unknown
9:52 PM 73.0 °F 71.1 °F 93% 29.98 in - Variable 3.5 mph - N/A   Unknown
11:52 PM 71.1 °F 69.1 °F 93% 29.99 in - Calm Calm - N/A   Unknown